Hourly Data Report for September 27, 2017

All times are specified in Local Standard Time (LST). Add 1 hour to adjust for Daylight Saving Time where and when it is observed.

EAST POINT (AUT)
PRINCE EDWARD ISLAND

46°27'36.000" N
61°59'18.000" W
7.70 m
8300418
71412
WEP

Download Data

Hourly Data (September 2017)
Hourly Data Report for September 27, 2017
Temp Definition
°C
Dew Point Temp Definition
°C
Rel Hum Definition
%
Wind Dir Definition
10's deg

Wind Spd Definition
km/h
Visibility Definition
km
Stn Press Definition
kPa
Hmdx Definition


Wind Chill Definition


Weather Definition


TIME
00:00 14.1 9.7 75 4 29   101.75     LegendNANA
01:00 13.9 9.6 75 5 24   101.76     LegendNANA
02:00 13.8 9.8 77 5 25   101.71     LegendNANA
03:00 13.9 9.6 75 5 26   101.69     LegendNANA
04:00 13.9 9.6 75 6 29   101.62     LegendNANA
05:00 13.8 10.2 79 8 25   101.68     LegendNANA
06:00 13.5 10.1 80 8 18   101.71     LegendNANA
07:00 14.1 11.6 85 11 19   101.65     LegendNANA
08:00 14.3 12.2 87 15 21   101.62     LegendNANA
09:00 14.8 12.3 85 15 20   101.56     LegendNANA
10:00 14.8 12.2 85 15 25   101.47     LegendNANA
11:00 14.6 12.3 86 15 25   101.34     LegendNANA
12:00 15.8 14.2 90 15 23   101.23     LegendNANA
13:00 17.2 14.7 86 16 26   101.15     LegendNANA
14:00 17.7 15.1 85 16 21   101.07     LegendNANA
15:00 18.2 15.1 82 16 28   100.95     LegendNANA
16:00 18.0 15.5 85 16 25   100.93     LegendNANA
17:00 18.4 16.3 88 17 17   100.89     LegendNANA
18:00 18.5 16.6 89 18 18   100.82     LegendNANA
19:00 18.7 17.1 91 19 19   100.80     LegendNANA
20:00 18.7 17.2 91 19 19   100.72     LegendNANA
21:00 18.3 16.9 92 18 23   100.60     LegendNANA
22:00 17.9 16.5 92 19 24   100.50     LegendNANA
23:00 17.6 16.4 93 18 26   100.45     LegendNANA

Notes on Data Quality.

Legend

  • E = Estimated
  • M = Missing
  • NA = Not Available
  • ‡ = Partner data that is not subject to review by the National Climate Archives
Date modified: